East Milton, MA

2:03 PM EDT on March 27, 2017 (GMT -0400)
East Milton

Weather History for KMQE - October, 2013

Change the Weather History Date:

Saturday, October 5, 2013

  Actual Average (KOWD) Record (KOWD)
Temperature  
Mean Temperature 60 °F -  
Max Temperature 66 °F 64 °F 88 °F (2007)
Min Temperature 55 °F 39 °F 30 °F (1996)
Degree Days  
Heating Degree Days 4    
Growing Degree Days 10 (Base 50)    
Moisture  
Dew Point 55 °F    
Average Humidity 86    
Maximum Humidity 97    
Minimum Humidity 68    
Precipitation  
Precipitation 0.01 in - - ()
Sea Level Pressure  
Sea Level Pressure 30.12 in    
Wind  
Wind Speed 4 mph (ENE)    
Max Wind Speed 9 mph    
Max Gust Speed -    
Averages and records for this station are not official NWS values.
T = Trace of Precipitation, MM = Missing Value Source: NWS Daily Summary

Daily Weather History Graph

Daily Weather History Graph

Search for Another Location

Airport or City:

Trip Planner

Search our weather history database for the weather conditions in past years. The results will help you decide how hot, cold, wet, or windy it might be!

Date:

Astronomy

Oct. 05, 2013 Rise Set
Actual Time 6:46 AM EDT 6:18 PM EDT
Civil Twilight 6:18 AM EDT 6:46 PM EDT
Nautical Twilight 5:45 AM EDT 7:19 PM EDT
Astronomical Twilight 5:12 AM EDT 7:51 PM EDT
Moon 7:23 AM EDT (10/5) 6:34 PM EDT (10/5)
Length of Visible Light 12h 28m
Length of Day
11h 32m
New Moon, 0% of the Moon is Illuminated
Oct 5
New Moon
Oct 11
First Quarter
Oct 18
Full
Oct 26
Last Quarter
Nov 3
New

Hourly Weather History & Observations

Time (EDT) Temp. Dew Point Humidity Pressure Visibility Wind Dir Wind Speed Gust Speed Precip Events Conditions
12:54 AM 57.9 °F 55.0 °F 90% 30.09 in - East 4.6 mph - N/A   Unknown
1:54 AM 57.9 °F 54.0 °F 87% 30.11 in - Calm Calm - N/A   Unknown
2:54 AM 57.9 °F 55.9 °F 93% 30.09 in - ENE 5.8 mph - N/A   Unknown
3:54 AM 57.9 °F 52.0 °F 81% 30.09 in - East 4.6 mph - N/A   Unknown
4:54 AM 57.0 °F 52.0 °F 83% 30.09 in - East 3.5 mph - N/A   Unknown
5:54 AM 57.0 °F 53.1 °F 87% 30.11 in - East 4.6 mph - 0.01 in   Unknown
6:54 AM 55.9 °F 55.0 °F 97% 30.12 in - North 4.6 mph - N/A   Unknown
7:54 AM 57.9 °F 55.9 °F 93% 30.12 in - NE 6.9 mph - N/A   Unknown
8:54 AM 59.0 °F 57.0 °F 93% 30.14 in - Calm Calm - N/A   Unknown
9:54 AM 61.0 °F 57.0 °F 87% 30.14 in - Variable 4.6 mph - N/A   Unknown
10:54 AM 61.0 °F 57.0 °F 87% 30.14 in - Calm Calm - N/A   Unknown
11:54 AM 63.0 °F 57.0 °F 81% 30.13 in - Calm Calm - N/A   Unknown
12:54 PM 64.0 °F 57.0 °F 78% 30.12 in - NNE 4.6 mph - N/A   Unknown
1:54 PM 64.9 °F 57.0 °F 75% 30.10 in - East 4.6 mph - N/A   Unknown
2:54 PM 66.0 °F 55.9 °F 70% 30.11 in - NNE 4.6 mph - N/A   Unknown
3:54 PM 66.0 °F 55.0 °F 68% 30.10 in - NE 4.6 mph - N/A   Unknown
4:54 PM 64.9 °F 55.0 °F 70% 30.11 in - NE 6.9 mph - N/A   Unknown
5:54 PM 61.0 °F 54.0 °F 78% 30.12 in - ENE 8.1 mph - N/A   Unknown
6:54 PM 59.0 °F 55.9 °F 90% 30.12 in - ENE 9.2 mph - N/A   Unknown
7:54 PM 57.9 °F 57.0 °F 97% 30.13 in - ENE 6.9 mph - N/A   Unknown
8:54 PM 57.9 °F 55.9 °F 93% 30.14 in - ENE 4.6 mph - N/A   Unknown
9:54 PM 57.9 °F 55.9 °F 93% 30.14 in - East 8.1 mph - N/A   Unknown
10:54 PM 57.9 °F 55.9 °F 93% 30.15 in - East 5.8 mph - N/A   Unknown
11:54 PM 57.9 °F 55.9 °F 93% 30.15 in - ESE 4.6 mph - N/A   Unknown